Weather in Marianske Lazne

Czech Republic     49°57′27″N   12°42′05″E
temp.,
°C
wind,
m/s
gust,
m/s
humid.,
%
clouds,
%
prec.,
mm/h
press.,
hPa
HPBL,
m
5 march, fri
fri501:00+2nnw2598100 4.3 1016297
04:000nnw4894100 2.4 1017609
07:00−1nw2392100 2.4 1020174
10:00+1nne467995 0.2 1023888
13:00+1nne566187 0.3 10241070
16:000nne46600 0.0 10261241
19:00−3nne25791 0.0 1029135
22:00−4nne22820 0.0 103246
6 march, sat
sat601:00−4n12750 0.0 103329
04:00−4n11720 0.0 103323
07:00−4nnw11710 0.0 103421
10:00+1ese11450 0.0 1034856
13:00+4e01360 0.0 10331141
16:00+3wnw11380 0.0 10311040
19:00−3wsw01617 0.0 103121
22:00−3sw01650 0.0 103121
7 march, sun
sun701:00−4nnw11660 0.0 103121
04:00−4wnw11640 0.0 102921
07:00−4w11640 0.0 102821
10:00+2w22410 0.0 1026503
13:00+4wnw343711 0.0 1024934
16:00+4wnw344231 0.0 10211012
19:00−2wnw226317 0.0 102121
22:00−3nw22750 0.0 102223
8 march, mon
mon801:00−4wnw22860 0.0 102231
04:00−5wnw249713 0.0 1021126
07:00−4wnw259630 0.0 1022192
10:000nw357279 0.0 1022622
13:00+2nw346586 0.0 1022812
16:00+2nw3469100 0.0 1021743
19:00−2nnw2292100 0.0 102223
22:00−3ene119537 0.0 102321
9 march, tue
tue901:00−3sse019768 0.0 102321
04:00−3s1198100 0.0 102236
07:00−3ssw009696 0.0 102264
10:00+1ssw117472 0.0 1023467
13:00+3w236686 0.0 1022859
16:00+3w347099 0.1 1021782
19:00−1w229167 0.1 102221
22:00−2wnw129531 0.0 102324